SnugLite
1 43784U 18099AC  24235.14759983  .00014880  00000-0  97773-3 0  9992
2 43784  97.4899 289.7233 0006006  91.2531 268.9385 15.07687230312579
ITASat 1
1 43786U 18099AE  24235.42232902  .00012811  00000-0  88955-3 0  9996
2 43786  97.5049 290.8473 0018416 124.8477 235.4485 15.05549571312537
EAGLET 1
1 43790U 18099AJ  24235.60446742  .00008728  00000-0  63733-3 0  9999
2 43790  97.5230 291.5133 0015365 103.6542 256.6396 15.03806567312257
ESEO
1 43792U 18099AL  24235.71877483  .00004314  00000-0  34932-3 0  9999
2 43792  97.5145 288.0609 0011000  92.8562 267.3921 15.00188533312173
CSIM
1 43793U 18099AM  24235.42798023  .00038036  00000-0  17855-2 0  9992
2 43793  97.5243 299.7105 0012035  87.2370 273.0241 15.19468099312826
JO-97
1 43803U 18099AX  24235.11687421  .00019063  00000-0  11995-2 0  9997
2 43803  97.5137 292.3722 0010518  80.8147 279.4271 15.09197406312631
Suomi 100
1 43804U 18099AY  24235.60311437  .00015617  00000-0  10071-2 0  9998
2 43804  97.5209 292.6255 0016533  77.5143 282.7934 15.08272328312682
ISAT
1 43879U 18111D   24235.47958990  .00023753  00000-0  13508-2 0  9999
2 43879  97.6109 140.9328 0014954 126.2521 234.0094 15.12775358309439
UWE-4
1 43880U 18111E   24235.51202860  .00019132  00000-0  11253-2 0  9995
2 43880  97.6029 140.8093 0018012 135.8258 224.4414 15.11563916309446
Sparrow
1 43881U 18111F   24235.69169203  .00024998  00000-0  13998-2 0  9992
2 43881  97.6204 143.1778 0010943 158.2970 201.8726 15.13363921307532
Prox-1
1 44339U 19036A   24235.46802791  .00018456  00000-0  30539-2 0  9991
2 44339  23.9986 158.4563 0008073  16.9584 343.1180 14.68767499274997
SONATE
1 44400U 19038Q   24235.72284870  .00038875  00000-0  10320-2 0  9996
2 44400  97.7145 232.9702 0013471 217.3713 142.6595 15.38096523284291
Taurus 1
1 44530U 19059C   24235.83068103  .00015493  00000-0  34605-2 0  9997
2 44530  98.5816 357.8391 0011421 208.4633 151.5942 14.56813741261462
Duchifat 3
1 44854U 19089C   24235.70306764  .00031806  00000-0  14647-2 0  9993
2 44854  36.9571   4.3636 0006009 306.3994  53.6200 15.19448101258318
TO-108
1 44881U 19093C   24235.86608883  .00002880  00000-0  35108-3 0  9998
2 44881  97.8245 311.3631 0015666 103.9355 256.3603 14.84061549252938
FloripaSat 1
1 44885U 19093G   24235.80022376  .00011087  00000-0  11111-2 0  9999
2 44885  97.8384 317.9068 0013280  95.8772 264.3961 14.91466732253291
RS-44
1 44909U 19096E   24235.79974056  .00000012  00000-0  91600-5 0  9998
2 44909  82.5182  60.5018 0216498 255.4140 102.2865 12.79733133217536
BY70-2
1 45857U 20042B   24231.99670933  .21607952  28471-5  37049-2 0  9999
2 45857  97.8802 331.4374 0021194 281.9515  77.9402 16.32302805224274
UPMSat 2
1 46276U 20061E   24235.44619025  .00031324  00000-0  86169-3 0  9997
2 46276  97.2913 301.0309 0000942 177.3324 182.7926 15.37125999220343
AmicalSat
1 46287U 20061R   24235.70835672  .00072055  00000-0  15755-2 0  9994
2 46287  97.3416 303.2423 0000519 316.1029  44.0178 15.43903622219802
SALSAT
1 46495U 20068K   24235.84049053  .00014177  00000-0  77075-3 0  9992
2 46495  97.8221 196.8832 0015803  87.5880 272.7160 15.14494088214397
UVSQ-SAT
1 47438U 21006AB  24235.73025507  .00148454  00000-0  18059-2 0  9991
2 47438  97.3162 297.5724 0003644 297.1493  62.9392 15.60041255199069
SOMP 2b
1 47445U 21006AJ  24235.38723326  .00116355  00000-0  17471-2 0  9996
2 47445  97.3122 295.0820 0003742 333.9059  26.2005 15.54479092198902
IDEASSat
1 47458U 21006AX  24235.82952585  .00090655  00000-0  15896-2 0  9993
2 47458  97.3241 295.8231 0003907 336.5143  23.5929 15.50236559198885
CubeSX-Sirius-HSE
1 47951U 21022V   24235.86910385  .00037796  00000-0  13137-2 0  9998
2 47951  97.4498 134.1938 0010245 256.8456 103.1641 15.29587125188756
CubeSX-HSE
1 47952U 21022W   24235.81722382  .00041464  00000-0  14327-2 0  9991
2 47952  97.4499 134.2468 0010197 255.6079 104.4030 15.29758892188758
KSU-Cubesat
1 47954U 21022Y   24235.72516241  .00051524  00000-0  15739-2 0  9994
2 47954  97.4508 135.8214 0008740 245.5842 114.4488 15.33683389188564
GRBAlpha
1 47959U 21022AD  24235.84295301  .00039318  00000-0  13557-2 0  9996
2 47959  97.4500 134.4333 0009995 255.5000 104.5132 15.29841413187584
Orbicraft-Zorkiy
1 47960U 21022AE  24235.80554954  .00044816  00000-0  14256-2 0  9992
2 47960  97.4543 135.9391 0008892 249.3270 110.7019 15.32424002188341
STECCO
1 47962U 21022AG  24228.02305010  .17567430  26699-5  34381-3 0  9996
2 47962  97.4265 141.9998 0011844 218.2455 141.8009 16.46434050187393
TUBIN
1 48900U 21059X   24235.83246292  .00031053  00000-0  96668-3 0  9990
2 48900  97.6544  22.5701 0006417 208.5933 151.4958 15.33217150175120
LEDSAT
1 49069U 21073D   24235.73451410  .00032809  00000-0  11908-2 0  9995
2 49069  97.4324 306.5348 0018228  51.9737 308.3144 15.28091585166607
CUTE
1 49263U 21088D   24235.24065331  .00036224  00000-0  15259-2 0  9994
2 49263  97.4909 300.9197 0013421 204.3507 155.7097 15.23172443159680
TeikyoSat 4
1 49396U 21102B   24235.68327216  .00005385  00000-0  38380-3 0  9994
2 49396  97.4530 278.3644 0014194  53.4653 306.7878 15.04902866152750
Z-Sat
1 49399U 21102E   24235.85597490  .00008937  00000-0  56030-3 0  9997
2 49399  97.4258 280.2570 0020638  33.7480 326.5059 15.09379610153043
KOSEN 1
1 49402U 21102H   24235.55674730  .00012607  00000-0  71818-3 0  9992
2 49402  97.4176 281.6601 0018413  17.2017 342.9835 15.12800111153175
HO-113
1 50466U 21131B   24235.84300545  .00001770  00000-0  57781-3 0  9990
2 50466  98.5267 320.6037 0003076 291.5043  68.5817 14.39849127139591
IRIS-A
1 51044U 22002BN  24235.68953596  .00037446  00000-0  10855-2 0  9992
2 51044  97.3785 302.1018 0006600 153.6416 206.5165 15.35431060144617
OreSat0
1 52017U 22026K   24235.58037089  .00238519  00000-0  18392-2 0  9996
2 52017  97.4858 253.5545 0002617 334.7499  25.3635 15.71239507136062
Planetum 1
1 52738U 22057G   24235.84564340  .00102299  00000-0  17999-2 0  9991
2 52738  97.5714   4.7751 0006119 266.6372  93.4178 15.50082437124861
Foresail-1
1 52766U 22057AL  24235.61231995  .00039590  00000-0  11332-2 0  9992
2 52766  97.5893   2.8691 0008817 253.8882 106.1391 15.35800801124633
SNUGLITE 2
1 52899U 22065F   24235.62490417  .00003779  00000-0  77581-3 0  9994
2 52899  98.1291  15.5283 0006809 310.9037  49.1573 14.61212223113968
IO-117
1 53106U 22080B   24228.11242500 -.00000003  00000-0  00000-0 0  9994
2 53106  70.1424 172.0499 0007747  94.1050 266.0495  6.42557430 49057
SelfieSat
1 53951U 22057BC  24235.86579997  .00643111  00000-0  25209-2 0  9991
2 53951  97.5638  10.8138 0011032 273.4187  86.5820 15.85333236125223
FO-118
1 54684U 22167C   24235.86833626  .00059566  00000-0  17109-2 0  9994
2 54684  97.6125  22.5324 0009913 269.1230  90.8878 15.35578030 94518
SSS-2B
1 56184U 23054G   24235.84150709  .00078482  00000-0  14789-2 0  9998
2 56184  97.3572 134.6582 0001788 301.2307  58.8768 15.48229396 76428
CIRBE
1 56188U 23054L   24235.72264828  .00233208  00000-0  19456-2 0  9992
2 56188  97.3467 137.9145 0004186 152.0257 208.1231 15.69344673 76656
INSPIRE-Sat 7
1 56211U 23054AK  24235.68922502  .00330486  00000-0  20673-2 0  9993
2 56211  97.3466 139.5200 0006245 162.1774 197.9712 15.75886219 76749
RoseyCubesat 1
1 56212U 23054AL  24235.72289488  .00900546  36277-3  23180-2 0  9992
2 56212  97.3435 141.2080 0009029 164.1694 195.9865 15.95193684 76856
SO-120
1 56992U 23084BU  24235.80697514  .00067791  00000-0  20410-2 0  9993
2 56992  97.5362 356.1442 0010447 154.2953 205.8811 15.34048208 66377
MRC-100
1 56993U 23084BV  24235.86269730  .00080910  00000-0  21921-2 0  9991
2 56993  97.5356 356.8619 0009167 154.5880 205.5817 15.37311026 66437
UmKA 1 (RS40S)
1 57172U 23091G   24235.88266961  .00011239  00000-0  71801-3 0  9995
2 57172  97.6059 287.2806 0015080 251.3353 108.6238 15.08719318 63548
CubeBel-2 (EU11S)
1 57175U 23091K   24235.86221163  .00014221  00000-0  88177-3 0  9999
2 57175  97.6057 287.2959 0013218 263.2438  96.7287 15.09778013 63544
VERONIKA
1 58261U 23174F   24235.83091542  .00036197  00000-0  14546-2 0  9995
2 58261  97.4552 310.1312 0010730  12.8106 347.3402 15.24790485 43854
KAFASAT
1 58317U 23174BP  24235.81533188  .00048742  00000-0  17137-2 0  9990
2 58317  97.4498 311.0133 0009115 345.1152  14.9819 15.29161166 43924
ENSO
1 58470U 23185J   24235.81959659  .00032072  00000-0  12290-2 0  9991
2 58470  97.4202 301.9468 0011962  49.8635 310.3650 15.26392291 40298
EIRSAT-1
1 58472U 23185L   24235.82728782  .00033871  00000-0  12613-2 0  9992
2 58472  97.4196 302.0634 0011381  50.6840 309.5406 15.27336213 40306
SO-121
1 58567U 23174CY  24235.71796480  .00130168  00000-0  31457-2 0  9997
2 58567  97.4460 312.0604 0008275 336.7231  23.3639 15.40623670 43980
SONATE-2
1 59112U 24043Q   24235.61572259  .00021856  00000-0  99162-3 0  9996
2 59112  97.4856 358.8446 0015007  64.5885 295.6901 15.20726913 25898
MESAT1
1 60209U 24125G   24235.85801082  .00022172  00000-0  99816-3 0  9999
2 60209  97.3168  87.2612 0027679  90.9738 269.4669 15.20739672  7546
